| time (UTC) | temp C | wind direction | speed KPH | gust KPH | rain 1hr cm | rain 24hr cm | rain mn cm | humidity % | barometer mb |
| 20260510230004 | 15 | 14 | 4.8 | 16.1 | 0.00 | 0.18 | 0.18 | 40 | 1012.9 |
| 20260510224523 | 15 | 342 | 1.6 | 12.9 | 0.00 | 0.18 | 0.18 | 38 | 1012.4 |
| 20260510223014 | 15 | 51 | 3.2 | 4.8 | 0.00 | 0.18 | 0.18 | 45 | 1012.2 |
| 20260510221510 | 16 | 90 | 1.6 | 14.5 | 0.00 | 0.18 | 0.18 | 37 | 1011.7 |
| 20260510220009 | 17 | 244 | 1.6 | 14.5 | 0.00 | 0.18 | 0.18 | 37 | 1011.4 |
| 20260510214506 | 17 | 179 | 4.8 | 14.5 | 0.00 | 0.18 | 0.18 | 36 | 1011.1 |
| 20260510213004 | 17 | 154 | 4.8 | 11.3 | 0.00 | 0.18 | 0.18 | 35 | 1011.0 |
| 20260510211523 | 17 | 184 | 1.6 | 16.1 | 0.00 | 0.18 | 0.18 | 36 | 1011.0 |
| 20260510210018 | 18 | 96 | 8.0 | 24.1 | 0.00 | 0.18 | 0.18 | 36 | 1011.0 |
| 20260510204517 | 18 | 183 | 3.2 | 12.9 | 0.00 | 0.18 | 0.18 | 37 | 1010.7 |
| 20260510203012 | 18 | 149 | 1.6 | 17.7 | 0.00 | 0.18 | 0.18 | 40 | 1010.7 |
| 20260510201510 | 17 | 155 | 8.0 | 19.3 | 0.00 | 0.18 | 0.18 | 37 | 1010.8 |
| 20260510194525 | 17 | 182 | 1.6 | 24.1 | 0.00 | 0.18 | 0.18 | 40 | 1010.7 |
| 20260510193021 | 17 | 205 | 6.4 | 16.1 | 0.00 | 0.18 | 0.18 | 43 | 1010.7 |
| 20260510191520 | 16 | 208 | 8.0 | 17.7 | 0.00 | 0.18 | 0.18 | 43 | 1010.9 |
| 20260510190017 | 16 | 193 | 6.4 | 19.3 | 0.00 | 0.18 | 0.18 | 45 | 1011.0 |
| 20260510184514 | 16 | 62 | 4.8 | 20.9 | 0.00 | 0.18 | 0.18 | 46 | 1011.1 |
| 20260510183013 | 17 | 126 | 8.0 | 22.5 | 0.00 | 0.18 | 0.18 | 44 | 1011.0 |
| 20260510181510 | 16 | 163 | 6.4 | 14.5 | 0.00 | 0.18 | 0.18 | 54 | 1010.9 |
| 20260510180005 | 16 | 182 | 4.8 | 14.5 | 0.00 | 0.18 | 0.18 | 66 | 1010.8 |
| 20260510174526 | 14 | 173 | 4.8 | 14.5 | 0.00 | 0.18 | 0.18 | 70 | 1011.1 |
| 20260510173018 | 13 | 286 | 1.6 | 6.4 | 0.00 | 0.18 | 0.18 | 75 | 1011.1 |
| 20260510171528 | 13 | 174 | 0.0 | 3.2 | 0.00 | 0.18 | 0.18 | 80 | 1011.3 |
| 20260510164529 | 13 | 360 | 1.6 | 6.4 | 0.00 | 0.18 | 0.18 | 79 | 1011.2 |
| 20260510163028 | 13 | 36 | 3.2 | 6.4 | 0.00 | 0.18 | 0.18 | 78 | 1011.0 |
| 20260510160035 | 15 | 224 | 8.0 | 14.5 | 0.00 | 0.18 | 0.18 | 74 | 1010.7 |
| 20260510153019 | 13 | 186 | 6.4 | 30.6 | 0.03 | 0.18 | 0.18 | 81 | 1010.5 |
| 20260510151516 | 13 | 102 | 3.2 | 9.7 | 0.03 | 0.18 | 0.18 | 86 | 1010.6 |
| 20260510150032 | 13 | 186 | 1.6 | 8.0 | 0.03 | 0.18 | 0.18 | 88 | 1010.5 |
| 20260510144533 | 13 | 173 | 4.8 | 22.5 | 0.00 | 0.15 | 0.15 | 81 | 1010.4 |
| 20260510141506 | 12 | 267 | 0.0 | 3.2 | 0.00 | 0.15 | 0.15 | 89 | 1010.2 |
| 20260510140021 | 12 | 273 | 0.0 | 3.2 | 0.00 | 0.15 | 0.15 | 89 | 1010.3 |
| 20260510134521 | 12 | 252 | 0.0 | 3.2 | 0.00 | 0.15 | 0.15 | 89 | 1010.2 |
| 20260510133016 | 12 | 188 | 1.6 | 8.0 | 0.00 | 0.15 | 0.15 | 84 | 1010.2 |
| 20260510131512 | 12 | 133 | 4.8 | 9.7 | 0.00 | 0.15 | 0.15 | 85 | 1010.3 |
| 20260510130011 | 12 | 9 | 3.2 | 9.7 | 0.00 | 0.15 | 0.15 | 88 | 1009.9 |
| 20260510124529 | 12 | 207 | 4.8 | 11.3 | 0.00 | 0.15 | 0.15 | 89 | 1010.4 |
| 20260510123025 | 11 | 208 | 1.6 | 9.7 | 0.00 | 0.15 | 0.15 | 92 | 1010.6 |
| 20260510121520 | 10 | 242 | 1.6 | 3.2 | 0.00 | 0.15 | 0.15 | 94 | 1010.4 |
| 20260510120025 | 10 | 350 | 0.0 | 3.2 | 0.00 | 0.15 | 0.15 | 96 | 1010.4 |
| 20260510114525 | 9 | 347 | 1.6 | 4.8 | 0.00 | 0.15 | 0.15 | 96 | 1010.3 |
| 20260510111526 | 8 | 163 | 0.0 | 3.2 | 0.00 | 0.15 | 0.15 | 96 | 1010.0 |
| 20260510110025 | 7 | 163 | 0.0 | 3.2 | 0.00 | 0.15 | 0.15 | 95 | 1010.0 |
| 20260510104522 | 7 | 69 | 1.6 | 3.2 | 0.00 | 0.15 | 0.15 | 95 | 1009.8 |
| 20260510103028 | 7 | 76 | 0.0 | 3.2 | 0.00 | 0.15 | 0.15 | 95 | 1009.1 |
| 20260510094540 | 7 | 14 | 0.0 | 3.2 | 0.00 | 0.15 | 0.15 | 94 | 1009.1 |
| 20260510093024 | 8 | 15 | 1.6 | 3.2 | 0.03 | 0.15 | 0.15 | 94 | 1008.9 |
| 20260510090007 | 8 | 5 | 0.0 | 1.6 | 0.15 | 0.15 | 0.15 | 94 | 1008.8 |
| 20260510084514 | 8 | 5 | 1.6 | 1.6 | 0.15 | 0.15 | 0.15 | 94 | 1008.6 |
| 20260510083003 | 8 | 5 | 1.6 | 1.6 | 0.13 | 0.13 | 0.13 | 93 | 1009.1 |
| 20260510081505 | 8 | 295 | 0.0 | 3.2 | 0.10 | 0.10 | 0.10 | 93 | 1009.3 |
| 20260510080028 | 8 | 295 | 0.0 | 3.2 | 0.00 | 0.00 | 0.00 | 91 | 1009.3 |
| 20260510074513 | 9 | 295 | 0.0 | 3.2 | 0.00 | 0.00 | 0.00 | 90 | 1009.1 |
| 20260510073017 | 9 | 295 | 0.0 | 3.2 | 0.00 | 0.00 | 0.00 | 90 | 1009.0 |
| 20260510071506 | 9 | 238 | 1.6 | 3.2 | 0.00 | 0.00 | 0.00 | 89 | 1009.2 |
| 20260510070004 | 9 | 198 | 0.0 | 6.4 | 0.00 | 0.00 | 0.00 | 89 | 1009.3 |
| 20260510064504 | 9 | 201 | 0.0 | 3.2 | 0.00 | 0.00 | 0.00 | 89 | 1009.3 |
| 20260510063019 | 9 | 171 | 0.0 | 3.2 | 0.00 | 0.00 | 0.00 | 89 | 1009.0 |
| 20260510061515 | 9 | 192 | 0.0 | 9.7 | 0.00 | 0.00 | 0.00 | 89 | 1009.2 |
| 20260510060012 | 9 | 180 | 1.6 | 4.8 | 0.00 | 0.00 | 0.00 | 89 | 1009.2 |
| 20260510054510 | 9 | 230 | 1.6 | 8.0 | 0.00 | 0.00 | 0.00 | 89 | 1009.5 |
| 20260510053008 | 9 | 162 | 0.0 | 6.4 | 0.00 | 0.00 | 0.00 | 89 | 1009.5 |
| 20260510051505 | 9 | 152 | 0.0 | 4.8 | 0.00 | 0.00 | 0.00 | 89 | 1009.4 |
| 20260510050021 | 8 | 145 | 1.6 | 6.4 | 0.00 | 0.00 | 0.00 | 88 | 1009.4 |
| 20260510044517 | 8 | 198 | 1.6 | 9.7 | 0.00 | 0.00 | 0.00 | 88 | 1009.5 |
| 20260510043014 | 8 | 180 | 3.2 | 11.3 | 0.00 | 0.00 | 0.00 | 88 | 1009.5 |
| 20260510041512 | 8 | 182 | 4.8 | 11.3 | 0.00 | 0.00 | 0.00 | 88 | 1009.2 |
| 20260510040007 | 8 | 165 | 4.8 | 9.7 | 0.00 | 0.00 | 0.00 | 88 | 1009.3 |
| 20260510033028 | 8 | 196 | 3.2 | 8.0 | 0.00 | 0.00 | 0.00 | 88 | 1009.7 |
| 20260510031522 | 8 | 182 | 3.2 | 9.7 | 0.00 | 0.00 | 0.00 | 88 | 1009.5 |
| 20260510030023 | 8 | 179 | 1.6 | 4.8 | 0.00 | 0.00 | 0.00 | 87 | 1009.6 |
| 20260510024518 | 8 | 219 | 3.2 | 6.4 | 0.00 | 0.00 | 0.00 | 87 | 1009.8 |
| 20260510023028 | 8 | 184 | 4.8 | 11.3 | 0.00 | 0.00 | 0.00 | 87 | 1009.8 |
| 20260510020026 | 8 | 182 | 4.8 | 11.3 | 0.00 | 0.00 | 0.00 | 86 | 1009.7 |
| 20260510014525 | 9 | 179 | 4.8 | 11.3 | 0.00 | 0.00 | 0.00 | 86 | 1010.0 |
| 20260510013032 | 8 | 179 | 4.8 | 11.3 | 0.00 | 0.00 | 0.00 | 86 | 1010.2 |
| 20260510011520 | 9 | 186 | 3.2 | 11.3 | 0.00 | 0.00 | 0.00 | 85 | 1010.1 |
| 20260510004514 | 9 | 178 | 1.6 | 6.4 | 0.00 | 0.00 | 0.00 | 85 | 1010.2 |
| 20260510003035 | 9 | 228 | 1.6 | 6.4 | 0.00 | 0.00 | 0.00 | 85 | 1010.0 |
| 20260510001504 | 9 | 190 | 4.8 | 9.7 | 0.00 | 0.00 | 0.00 | 85 | 1009.8 |
| 20260510000004 | 9 | 178 | 3.2 | 6.4 | 0.00 | 0.00 | 0.00 | 85 | 1010.0 |
| 20260509234504 | 9 | 192 | 0.0 | 4.8 | 0.00 | 0.00 | 0.00 | 85 | 1009.8 |
| 20260509233003 | 9 | 192 | 1.6 | 6.4 | 0.00 | 0.00 | 0.00 | 84 | 1009.8 |
| 20260509231511 | 9 | 182 | 3.2 | 8.0 | 0.00 | 0.00 | 0.00 | 84 | 1009.8 |